Location: Vihti�l�
(61.3833°N, 23.0667°E)
Time: 04:42:07
(UTC+00:00)

Cosmos 2181 Rocket - Pass Details

Date: 29 November 2020
Orbit: 951 x 1015 km, 82.9° (Epoch: 19 January)

Event Time Altitude Azimuth Distance (km) Brightness Sun altitude
Rises 03:06:22 0° 345° (NNW) 3,708 6.9 -27.1°
Reaches altitude 10° 03:08:54 10° 345° (NNW) 2,747 6.2 -26.8°
Maximum altitude 03:15:11 77° 260° (W) 1,000 3.8 -26.1°
Drops below altitude 10° 03:21:20 10° 176° (S) 2,691 6.3 -25.3°
Sets 03:23:48 0° 175° (S) 3,628 7.0 -25.0°
